Apolo11.com - Imagens de satélite, tecnologia e fenômenos naturais




Elementos Keplerianos formato Two Line

Para que um programa de rastreio possa saber a localização exata de qualquer satélite no espaço e assim poder rastreá-lo corretamente, é necessário que ele seja carregado com algumas informações.

Estas informações são chamadas de Elementos Orbitais ou Elementos Keplerianos e consistem em 2 linhas com dezenas de números. Esses números nada mais são que os parâmetros orbitais do satélite, tais como altitude, atitude, excentricidade da órbita, número de órbitas por dia, etc.

Com base nestas informações o programa é capaz de determinar com bastante exatidão a posição de qualquer satélite no espaço e nos informar em qual horário este estará dentro do alcance de nossa estação. Para que isso seja feito com precisão é necessário que os dados estejam sempre bem atualizadas.

Devido aos parâmetros orbitais serem descritos em 2 linhas, estes formato é também conhecido internacionalmente por 2line (leia-se Two Line”).

Para atualizar seu programa de rastreio basta copiar os dados disponibilizados e fornece-los ao programa. Nossos elementos orbitais são atualizados diariamente.


NOAATodos os satélites ambientais da série NOAA
30 DiasSatélites lançados nos últimos 30 dias
ISSSatélites e foguetes relacionados à Estação Espacial Internacional
HAMSatélites construídos por radiomadores
CUBESatélites tipo cubo, com 10 centímetros de lado
METEOSatélites voltados à previsão do tempo
EDUSatélites construídos e operados por universidades
VIS100 satélites mais brilhantes que podem ser vistos a olho nú


Satélites de Radioamadores
OSCAR 7 (AO-7)          
1 07530U 74089B   12212.39991939 -.00000027  00000-0  10000-3 0  4431
2 07530 101.4046 207.9456 0011594 196.9731 163.0957 12.53590388725461
PHASE 3B (AO-10)        
1 14129U 83058B   12211.95261294 -.00000310  00000-0  10000-3 0    31
2 14129  27.1697 326.0499 6031246 180.0340 180.1045  2.05871054191105
UOSAT 2 (UO-11)         
1 14781U 84021B   12211.97068785  .00000115  00000-0  21860-4 0  9340
2 14781  97.9494 271.1106 0007842 252.7175 107.3176 14.80502103526263
PACSAT (AO-16)          
1 20439U 90005D   12211.98726159  .00000068  00000-0  40944-4 0  5227
2 20439  98.4330 154.1677 0011739  35.6207 324.5755 14.32068958176126
LUSAT (LO-19)           
1 20442U 90005G   12211.86405811  .00000102  00000-0  53316-4 0  4514
2 20442  98.3973 156.9045 0012436  28.3425 331.8426 14.32286429176296
EYESAT-1 (AO-27)        
1 22825U 93061C   12212.43343539  .00000098  00000-0  55534-4 0  1614
2 22825  98.5765 154.5795 0008698 147.5595 212.6122 14.29473664982656
ITAMSAT (IO-26)         
1 22826U 93061D   12212.84591291  .00000059  00000-0  39704-4 0  9133
2 22826  98.5701 155.3447 0009241 140.2518 219.9341 14.29748584982840
RADIO ROSTO (RS-15)     
1 23439U 94085A   12212.22065868 -.00000039  00000-0  10000-3 0  5030
2 23439  64.8152 222.6795 0163145 210.9841 148.1378 11.27558318724542
JAS-2 (FO-29)           
1 24278U 96046B   12212.29728575  .00000038  00000-0  77717-4 0  9007
2 24278  98.5849 307.3150 0349697 277.7995  78.3581 13.52985735787788
TECHSAT 1B (GO-32)      
1 25397U 98043D   12212.42136270 -.00000069  00000-0 -12342-4 0  8366
2 25397  98.3662 189.0101 0001740 127.4342 232.6999 14.23284156730171
SEDSAT 1 (SO-33)        
1 25509U 98061B   12212.02962082  .00000332  00000-0  51450-4 0  2879
2 25509  31.4344  91.2353 0352839 218.2645 139.2424 14.28796477718784
ISS (ZARYA)             
1 25544U 98067A   12212.94052083  .00010023  00000-0  15450-3 0   275
2 25544  51.6431 263.7924 0000841   3.0854  11.4331 15.54826243784820
PCSAT (NO-44)           
1 26931U 01043C   12212.41018590 -.00000115  00000-0 -12359-4 0  1002
2 26931  67.0523   8.9400 0007341 254.9401 105.0900 14.29814825565428
SAUDISAT 1C (SO-50)     
1 27607U 02058C   12212.36631256  .00000317  00000-0  69135-4 0  8254
2 27607  64.5568 163.5425 0080656 240.0154 119.2936 14.72442696516328
CUTE-1 (CO-55)          
1 27844U 03031E   12211.59065988  .00000099  00000-0  65523-4 0  4289
2 27844  98.7028 219.3536 0010588  97.9094 262.3288 14.21047150470917
CUBESAT XI-IV (CO-57)   
1 27848U 03031J   12212.51725630  .00000056  00000-0  46270-4 0  3788
2 27848  98.7122 219.6202 0010592 100.2061 260.0304 14.20795906470985
MOZHAYETS 4 (RS-22)     
1 27939U 03042A   12212.66927526  .00000373  00000-0  79510-4 0  5850
2 27939  97.8105  51.2501 0014327 124.5575 235.6986 14.64078004472244
ECHO (AO-51)            
1 28375U 04025K   12212.47908146  .00000141  00000-0  55146-4 0  3280
2 28375  98.1515 175.7500 0082858 270.4888  88.6793 14.40970532425006
HAMSAT (VO-52)          
1 28650U 05017B   12212.23639077  .00000521  00000-0  69923-4 0  1677
2 28650  97.5964 241.0835 0025097 259.3062 100.5399 14.83064244391350
CUBESAT XI-V (CO-58)    
1 28895U 05043F   12211.62329884  .00000420  00000-0  95243-4 0  2371
2 28895  97.9084  76.0196 0017908  22.5002 337.6992 14.60686944359853
CUTE-1.7+APD II (CO-65) 
1 32785U 08021C   12212.08818223  .00000782  00000-0  10239-3 0  3737
2 32785  97.7974 272.1215 0013306 282.8968  77.0741 14.83075732230120
DELFI-C3 (DO-64)        
1 32789U 08021G   12212.65398674  .00001831  00000-0  21506-3 0  3765
2 32789  97.8099 275.6202 0013231 274.8612  85.1151 14.86070208230335
YUBILEINY (RS-30)       
1 32953U 08025A   12212.67294873  .00000010  00000-0  00000+0 0    82
2 32953  82.5014 268.0993 0018032 209.4685 150.5378 12.43026107189967
PRISM                   
1 33493U 09002B   12212.88577973  .00001478  00000-0  18355-3 0  9293
2 33493  98.1767 354.5080 0019419 151.9920 208.2364 14.84067155190239
STARS                   
1 33498U 09002G   12212.47280808  .00000700  00000-0  11702-3 0  7868
2 33498  98.1150 328.6843 0011771 294.6439  65.3531 14.72952176188892
KKS-1                   
1 33499U 09002H   12212.26447933  .00000532  00000-0  93202-4 0  8039
2 33499  98.1165 327.0797 0009317 298.6147  61.4122 14.71784521188768
SWISSCUBE               
1 35932U 09051B   12212.72292838  .00005328  00000-0  12986-2 0  6809
2 35932  98.3405 315.4184 0006181 343.7595  16.3254 14.53093536151187
BEESAT                  
1 35933U 09051C   12212.75686792  .00007945  00000-0  19109-2 0  8778
2 35933  98.3399 315.8904 0007776 350.2294   9.8550 14.53560383151246
ITUPSAT1                
1 35935U 09051E   12212.47901089  .00001963  00000-0  48744-3 0  9669
2 35935  98.3514 315.7791 0007592 340.1581  19.9307 14.52921209151130
HOPE-1 (HO-68)          
1 36122U 09072B   12212.76767983 -.00000044  00000-0  00000+0 0  6932
2 36122 100.3582 271.2295 0007637  12.3081 347.8210 13.16297017126125
JUGNU                   
1 37839U 11058B   12212.77125760  .00000619  00000-0  19019-3 0  1966
2 37839  19.9620  94.1814 0019227 345.0726  14.9131 14.12069782 41413
SRMSAT                  
1 37841U 11058D   12212.03595746  .00000264  00000-0  00000+0 0  1965
2 37841  19.9708 104.3680 0012077 298.2060  61.7142 14.10151680 41244
RAX-2                   
1 37853U 11061D   12212.17761790  .00001642  00000-0  13922-3 0  2436
2 37853 101.7115 271.9444 0246358 228.4152 129.5693 14.80247939 40755
AUBIESAT-1 (AO-71)      
1 37854U 11061E   12211.91825456  .00001427  00000-0  12088-3 0  2453
2 37854 101.7120 271.8707 0246957 228.2964 129.6877 14.80642539 40713
M-CUBED & EXP-1 PRIME   
1 37855U 11061F   12212.13898652  .00001542  00000-0  12981-3 0  2402
2 37855 101.7102 272.1358 0247667 227.8940 130.0995 14.80491000 40743
CHIBIS-M (RS-39)        
1 38051U 11062C   12212.77835766  .00005740  00000-0  24057-3 0  5627
2 38051  51.6354 312.0202 0013979 191.1741 255.0221 15.24883159 28627


IMAGENS DE SATÉLITES !    Clique e conheça nosso Vídeo Workshop de sensoriamento remoto e imagens meteorológicas.
Apolo11.com - Todos os direitos reservados - 2001 - 2013
Política de Privacidade

"Um homem honesto não pode sentir prazer no exercício do poder sobre seus concidadãos" - Thomas Jefferson